Regional Weather Roundup
Issued by NWS Green Bay, WI

Home | Current Version | Previous Version | Graphics & Text | Print | Product List | Glossary Off
Versions: 1 2 3 4 5 6 7 8 9 10 11 12 13 14 15 16 17 18 19 20 21 22 23 24 25 26 27 28 29 30 31 32 33 34 35 36 37 38 39 40 41 42 43 44 45 46 47 48 49 50

000
ASUS43 KGRB 301011
RWRGRB

NORTH-CENTRAL AND NORTHEAST WISCONSIN REGIONAL WEATHER ROUNDUP
NATIONAL WEATHER SERVICE GREEN BAY WI
500 AM CDT SAT MAY 30 2015

WIZ005-009-010>012-018-019-301100-
NORTH CENTRAL WISCONSIN

CITY           SKY/WX    TMP DP  RH WIND       PRES   REMARKS
IRONWOOD       CLOUDY    45  43  93 NW6       30.08S
MANITOWISH WTR CLOUDY    46  46 100 N8        30.08R FOG
ARBOR VITAE    CLOUDY    49  48  95 N10       30.06R FOG
EAGLE RIVER    CLOUDY    50  49  95 N10G16    30.05R
LAND O LAKES   CLOUDY    49  47  95 N9        30.06R FOG
RHINELANDER    MOCLDY    51  49  92 N7        30.05R
PHILLIPS       CLOUDY    47  45  92 N9        30.06R
ANTIGO         CLOUDY    52  49  90 N10       30.01R
TOMAHAWK       CLOUDY    49  48  95 NW7       30.05R FOG
MERRILL        CLOUDY    52  52  99 N6        30.03R
$$

WIZ013-073-301100-
NORTHEAST WISCONSIN

CITY           SKY/WX    TMP DP  RH WIND       PRES   REMARKS
IRON MOUNTAIN  CLOUDY    51  48  89 N10       30.01R
MARINETTE      CLOUDY    52  46  82 N7        29.99R
OCONTO         CLOUDY    53  53 100 N8        29.99R
$$

WIZ017-030-035>037-045-301100-
CENTRAL WISCONSIN

CITY           SKY/WX    TMP DP  RH WIND       PRES   REMARKS
MEDFORD        CLOUDY    49  48  95 N12       30.04R
WAUSAU         CLOUDY    55  51  86 N7        30.00R
MOSINEE        DRIZZLE   54  54 100 N9G20     30.00R
MARSHFIELD     CLOUDY    55  51  86 N9        30.00R
WISC RAPIDS    LGT RAIN  58  55  90 NE14      29.98R
STEVENS POINT  LGT RAIN  55  54  95 N9        29.99R
WAUPACA        RAIN      58  57  97 N12       29.98R
SHAWANO        LGT RAIN  55  54  95 N12       30.00R
CLINTONVILLE   RAIN      54  52  94 NE9G17    29.99R
$$

WIZ038-039-048-051-301100-
FOX VALLEY

CITY           SKY/WX    TMP DP  RH WIND       PRES   REMARKS
NWS GREEN BAY  LGT RAIN  57  55  93 N16       29.97R FOG
APPLETON       LGT RAIN  54  54 100 NE16G23   29.97R
OSHKOSH        CLOUDY    60  58  92 NE14G28   29.94R
FOND DU LAC    LGT RAIN  64  63  96 CALM      29.93R
$$

WIZ022-050-052-301100-
EAST CENTRAL WISCONSIN

CITY           SKY/WX    TMP DP  RH WIND       PRES   REMARKS
STURGEON BAY   CLOUDY    52  46  82 N15G21    30.01R
MANITOWOC      CLOUDY    54  53  97 NE10      29.98R FOG
SHEBOYGAN      LGT RAIN  54  53  97 NE14G24   29.96R
$$

LMZ563-521-522-541>543-301100-
LAKESHORE

STATION/POSITION TIME  TEMP    WIND        PRES    VSBY  WAVE
                       AIR SEA DIR/SP/G                  HT/PER
                 (UTC) (F)     (DEG/KT/KT) (MB)    (MI)  (FT/S)
SHEBOYGAN LKSHOR 1000   49      20/ 14/ 15 1014.8R
KEWAUNEE LKSHORE 0900   51      20/  8/ 11 1013.7R
ALGOMA MARINA    0923          360/ 10/ 15   N/A
NORTHPORT PIER   0900   52     340/ 13/ 15 1014.9R
N MID LAKE BUOY  0950   42 37  320/  8/ 10 1014.9R         1/ 3
SISTER BAY LKSHO 0903   51     360/ 12/ 15   N/A
CHAMBERS ISLAND  0900   53     340/ 13/ 17 1014.9R
MENOMINEE LKSHOR 0900   53     360/ 17/ 24 1015.4R
$$


USA.gov is the U.S. government's official web portal to all federal, state and local government web resources and services.